When you browse on this site, cookies collect data to enhance your experience and personalize the content and advertising you see.
Visit our Privacy Policy to learn more. By continuing to use the site, you agree to this use of cookies and data.
  • In Spain
  • List of Countries
  • For 7 days
  • Water Temperature
  • Satellite Maps
  • Weather Map
  • Weather Widgets
  • user-avatar
    Login

    Hourly Weather Jerusalem

    Today, 18 July, Thursday

    Time Temperature Precipitation Wind Pressure Humidity
    00:00 +21°C° 0 mm 2 mps 689 mmHg 81%
    01:00 +21°C° 0 mm 2 mps 689 mmHg 80%
    02:00 +21°C° 0 mm 1 mps 689 mmHg 83%
    03:00 +21°C° 0 mm 1 mps 689 mmHg 84%
    04:00 +21°C° 0 mm 1 mps 689 mmHg 85%
    05:00 +21°C° 0 mm 1 mps 689 mmHg 86%
    06:00 +23°C° 0 mm 2 mps 690 mmHg 73%
    07:00 +25°C° 0 mm 2 mps 690 mmHg 60%
    08:00 +27°C° 0 mm 3 mps 691 mmHg 47%
    09:00 +29°C° 0 mm 4 mps 691 mmHg 42%
    10:00 +30°C° 0 mm 5 mps 692 mmHg 38%
    11:00 +33°C° 0 mm 6 mps 692 mmHg 34%
    12:00 +32°C° 0 mm 7 mps 692 mmHg 35%
    13:00 +32°C° 0 mm 8 mps 691 mmHg 37%
    14:00 +32°C° 0 mm 8 mps 691 mmHg 38%
    15:00 +31°C° 0 mm 8 mps 691 mmHg 41%
    16:00 +29°C° 0 mm 8 mps 691 mmHg 44%
    17:00 +28°C° 0 mm 8 mps 691 mmHg 47%
    18:00 +26°C° 0 mm 6 mps 691 mmHg 55%
    19:00 +23°C° 0 mm 4 mps 691 mmHg 64%
    20:00 +21°C° 0 mm 3 mps 691 mmHg 72%
    21:00 +20°C° 0 mm 2 mps 691 mmHg 77%
    22:00 +20°C° 0 mm 2 mps 691 mmHg 81%
    23:00 +19°C° 0 mm 2 mps 691 mmHg 85%

    Tomorrow, 19 July, Friday

    Time Temperature Precipitation Wind Pressure Humidity
    00:00 +19°C° 0 mm 2 mps 691 mmHg 86%
    01:00 +19°C° 0 mm 2 mps 691 mmHg 86%
    02:00 +19°C° 0 mm 2 mps 691 mmHg 86%
    03:00 +18°C° 0 mm 2 mps 691 mmHg 86%
    04:00 +18°C° 0 mm 2 mps 691 mmHg 87%
    05:00 +19°C° 0 mm 1 mps 691 mmHg 87%
    06:00 +21°C° 0 mm 1 mps 692 mmHg 79%
    07:00 +22°C° 0 mm 1 mps 692 mmHg 70%
    08:00 +24°C° 0 mm 1 mps 693 mmHg 62%
    09:00 +25°C° 0 mm 2 mps 693 mmHg 55%
    10:00 +27°C° 0 mm 2 mps 693 mmHg 48%
    11:00 +28°C° 0 mm 3 mps 693 mmHg 41%
    12:00 +29°C° 0 mm 4 mps 693 mmHg 40%
    13:00 +29°C° 0 mm 4 mps 693 mmHg 40%
    14:00 +30°C° 0 mm 5 mps 693 mmHg 39%
    15:00 +29°C° 0 mm 6 mps 692 mmHg 44%
    16:00 +28°C° 0 mm 7 mps 692 mmHg 48%
    17:00 +27°C° 0 mm 8 mps 692 mmHg 52%
    18:00 +24°C° 0 mm 6 mps 692 mmHg 62%
    19:00 +22°C° 0 mm 4 mps 692 mmHg 72%
    20:00 +20°C° 0 mm 3 mps 692 mmHg 83%
    21:00 +19°C° 0 mm 2 mps 691 mmHg 83%
    22:00 +19°C° 0 mm 2 mps 691 mmHg 83%
    23:00 +19°C° 0 mm 1 mps 691 mmHg 84%

    Day after tomorrow, 20 July, Saturday

    Time Temperature Precipitation Wind Pressure Humidity
    00:00 +19°C° 0 mm 1 mps 691 mmHg 84%
    01:00 +18°C° 0 mm 1 mps 691 mmHg 84%
    02:00 +18°C° 0 mm 1 mps 691 mmHg 84%
    03:00 +18°C° 0 mm 1 mps 691 mmHg 85%
    04:00 +18°C° 0 mm 1 mps 691 mmHg 86%
    05:00 +18°C° 0 mm 1 mps 691 mmHg 87%
    06:00 +20°C° 0 mm 1 mps 691 mmHg 79%
    07:00 +21°C° 0 mm 1 mps 692 mmHg 72%
    08:00 +23°C° 0 mm 1 mps 692 mmHg 64%
    09:00 +25°C° 0 mm 2 mps 693 mmHg 56%
    10:00 +27°C° 0 mm 2 mps 693 mmHg 48%
    11:00 +29°C° 0 mm 3 mps 693 mmHg 39%
    12:00 +29°C° 0 mm 4 mps 693 mmHg 39%
    13:00 +30°C° 0 mm 5 mps 693 mmHg 38%
    14:00 +30°C° 0 mm 6 mps 693 mmHg 38%
    15:00 +29°C° 0 mm 6 mps 692 mmHg 41%
    16:00 +28°C° 0 mm 7 mps 692 mmHg 45%
    17:00 +27°C° 0 mm 7 mps 692 mmHg 49%
    18:00 +24°C° 0 mm 6 mps 692 mmHg 60%
    19:00 +22°C° 0 mm 4 mps 692 mmHg 72%
    20:00 +20°C° 0 mm 2 mps 691 mmHg 84%
    21:00 +19°C° 0 mm 2 mps 691 mmHg 84%
    22:00 +19°C° 0 mm 2 mps 691 mmHg 84%
    23:00 +19°C° 0 mm 1 mps 691 mmHg 84%

    21 July, Sunday

    Time Temperature Precipitation Wind Pressure Humidity
    00:00 +19°C° 0 mm 1 mps 691 mmHg 84%
    01:00 +18°C° 0 mm 1 mps 690 mmHg 85%
    02:00 +18°C° 0 mm 1 mps 690 mmHg 85%
    03:00 +18°C° 0 mm 1 mps 690 mmHg 86%
    04:00 +18°C° 0 mm 1 mps 690 mmHg 88%
    05:00 +18°C° 0 mm 1 mps 690 mmHg 89%
    06:00 +20°C° 0 mm 1 mps 691 mmHg 79%
    07:00 +22°C° 0 mm 1 mps 691 mmHg 69%
    08:00 +24°C° 0 mm 1 mps 692 mmHg 59%
    09:00 +26°C° 0 mm 1 mps 692 mmHg 52%
    10:00 +28°C° 0 mm 2 mps 692 mmHg 45%
    11:00 +30°C° 0 mm 2 mps 692 mmHg 38%
    12:00 +30°C° 0 mm 3 mps 692 mmHg 38%
    13:00 +32°C° 0 mm 4 mps 692 mmHg 39%
    14:00 +32°C° 0 mm 5 mps 691 mmHg 40%
    15:00 +30°C° 0 mm 5 mps 691 mmHg 43%
    16:00 +29°C° 0 mm 6 mps 691 mmHg 47%
    17:00 +28°C° 0 mm 6 mps 691 mmHg 50%
    18:00 +26°C° 0 mm 5 mps 690 mmHg 59%
    19:00 +23°C° 0 mm 4 mps 690 mmHg 68%
    20:00 +21°C° 0 mm 3 mps 690 mmHg 78%
    21:00 +21°C° 0 mm 2 mps 690 mmHg 78%
    22:00 +20°C° 0 mm 2 mps 690 mmHg 77%
    23:00 +21°C° 0 mm 1 mps 690 mmHg 77%

    22 July, Monday

    Time Temperature Precipitation Wind Pressure Humidity
    00:00 +20°C° 0 mm 1 mps 690 mmHg 78%
    01:00 +20°C° 0 mm 1 mps 689 mmHg 79%
    02:00 +19°C° 0 mm 1 mps 689 mmHg 80%
    03:00 +19°C° 0 mm 1 mps 689 mmHg 82%
    04:00 +19°C° 0 mm 1 mps 689 mmHg 84%
    05:00 +18°C° 0 mm 1 mps 689 mmHg 86%
    06:00 +21°C° 0 mm 1 mps 689 mmHg 74%
    07:00 +24°C° 0 mm 1 mps 690 mmHg 63%
    08:00 +26°C° 0 mm 1 mps 691 mmHg 51%
    09:00 +28°C° 0 mm 2 mps 691 mmHg 45%
    10:00 +30°C° 0 mm 3 mps 691 mmHg 39%
    11:00 +33°C° 0 mm 3 mps 691 mmHg 33%
    12:00 +34°C° 0 mm 4 mps 691 mmHg 33%
    13:00 +35°C° 0 mm 4 mps 690 mmHg 33%
    14:00 +35°C° 0 mm 5 mps 690 mmHg 34%
    15:00 +34°C° 0 mm 5 mps 690 mmHg 36%
    16:00 +33°C° 0 mm 6 mps 689 mmHg 38%
    17:00 +32°C° 0 mm 7 mps 689 mmHg 41%
    18:00 +28°C° 0 mm 6 mps 689 mmHg 51%
    19:00 +26°C° 0 mm 4 mps 689 mmHg 62%
    20:00 +22°C° 0 mm 3 mps 688 mmHg 72%
    21:00 +22°C° 0 mm 3 mps 688 mmHg 73%
    22:00 +21°C° 0 mm 2 mps 688 mmHg 74%
    23:00 +21°C° 0 mm 2 mps 688 mmHg 75%

    23 July, Tuesday

    Time Temperature Precipitation Wind Pressure Humidity
    00:00 +20°C° 0 mm 2 mps 688 mmHg 76%
    01:00 +21°C° 0 mm 1 mps 687 mmHg 77%
    02:00 +20°C° 0 mm 1 mps 687 mmHg 78%
    03:00 +20°C° 0 mm 1 mps 687 mmHg 79%
    04:00 +20°C° 0 mm 1 mps 687 mmHg 79%
    05:00 +19°C° 0 mm 1 mps 687 mmHg 80%
    06:00 +22°C° 0 mm 1 mps 688 mmHg 69%
    07:00 +25°C° 0 mm 2 mps 688 mmHg 58%
    08:00 +27°C° 0 mm 2 mps 689 mmHg 47%
    09:00 +29°C° 0 mm 2 mps 689 mmHg 42%
    10:00 +31°C° 0 mm 3 mps 689 mmHg 37%
    11:00 +34°C° 0 mm 3 mps 689 mmHg 32%
    12:00 +34°C° 0 mm 4 mps 689 mmHg 32%
    13:00 +34°C° 0 mm 5 mps 689 mmHg 32%
    14:00 +35°C° 0 mm 6 mps 689 mmHg 32%
    15:00 +34°C° 0 mm 7 mps 689 mmHg 34%
    16:00 +32°C° 0 mm 7 mps 688 mmHg 37%
    17:00 +31°C° 0 mm 8 mps 688 mmHg 39%
    18:00 +28°C° 0 mm 6 mps 688 mmHg 51%
    19:00 +25°C° 0 mm 5 mps 688 mmHg 62%
    20:00 +22°C° 0 mm 3 mps 688 mmHg 74%
    21:00 +21°C° 0 mm 3 mps 688 mmHg 75%
    22:00 +21°C° 0 mm 2 mps 688 mmHg 76%
    23:00 +20°C° 0 mm 2 mps 688 mmHg 77%
    Show more